Printer-friendly version

IAU Minor Planet Center

Minor Planet Center

MPEC 2007-F39 : 2007 FJ1

The following Minor Planet Electronic Circular may be linked-to from your own Web pages, but must not otherwise be redistributed electronically.


Read MPEC 2007-F38 Read MPEC 2007-F40


M.P.E.C. 2007-F39                                Issued 2007 Mar. 19, 11:51 UT

     The Minor Planet Electronic Circulars contain information on unusual
         minor planets and routine data on comets.  They are published
   on behalf of Commission 20 of the International Astronomical Union by the
          Minor Planet Center, Smithsonian Astrophysical Observatory,
                          Cambridge, MA 02138, U.S.A.

             Prepared using the Tamkin Foundation Computer Network

                              MPC@CFA.HARVARD.EDU
          URL http://cfa-www.harvard.edu/iau/mpc.html  ISSN 1523-6714

                                   2007 FJ1

Observations:
     K07F01J* C2007 03 17.31795 11 36 22.93 +32 46 53.5          21.2 V EF039703
     K07F01J  C2007 03 17.32632 11 36 26.06 +32 46 55.4          20.9 V EF039703
     K07F01J  C2007 03 17.33471 11 36 29.12 +32 46 57.8          20.6 V EF039703
     K07F01J  C2007 03 17.40733 11 36 56.77 +32 47 08.0          20.4 V EF039703
     K07F01J  C2007 03 17.41870 11 37 01.23 +32 47 07.6          20.1 V EF039703
     K07F01J  C2007 03 17.43000 11 37 05.55 +32 47 09.0          19.6 V EF039703
     K07F01J  C2007 03 17.44130 11 37 10.09 +32 47 09.0          20.3 V EF039703
     K07F01J  C2007 03 18.19948111 42 32.95 +32 49 25.7          21.1   EF039H55
     K07F01J  C2007 03 18.20265611 42 34.13 +32 49 26.4          20.9   EF039H55
     K07F01J  C2007 03 18.20564811 42 35.27 +32 49 26.6          20.7   EF039H55
     K07F01J  C2007 03 18.22648 11 42 45.54 +32 49 36.0          20.1 V EF039703
     K07F01J  C2007 03 18.23304 11 42 48.09 +32 49 37.5          19.8 V EF039703
     K07F01J  C2007 03 18.23962 11 42 50.65 +32 49 39.4          20.1 V EF039703
     K07F01J  C2007 03 18.24644 11 42 53.38 +32 49 41.4          19.8 V EF039703
     K07F01J 5C2007 03 19.24086 11 49 53.91 +32 50 03.9          20.2 R EF039673
     K07F01J 5C2007 03 19.24398 11 49 54.98 +32 50 04.0                 EF039673
     K07F01J 5C2007 03 19.24977 11 49 57.32 +32 50 04.4                 EF039673
     K07F01J 5C2007 03 19.25579 11 49 59.65 +32 50 04.8                 EF039673

Observer details:
673 Table Mountain Observatory, Wrightwood.  Observer J. Young.  0.61-m f/16
    Cassegrain + CCD.
703 Catalina Sky Survey.  Observer R. A. Kowalski.  Measurers E. C. Beshore,
    E. J. Christensen, G. J. Garradd, A. R. Gibbs, A. D. Grauer, R. E. Hill,
    R. A. Kowalski, S. M. Larson, R. H. McNaught.  0.68-m Schmidt + CCD.
H55 Astronomical Research Observatory, Charleston.  Observer R. Holmes.
    0.81-m f/4.0 astrograph + CCD.

Orbital elements:
2007 FJ1                                                 Earth MOID = 0.0942 AU
Epoch 2007 Apr. 10.0 TT = JDT 2454200.5                 MPC
M   7.31460              (2000.0)            P               Q
n   0.39746395     Peri.   50.06518     -0.99892184     +0.01083807
a   1.8320510      Node   130.50648     -0.02645597     -0.93192109
e   0.4117663      Incl.    3.40365     +0.03814766     -0.36249912
P   2.48           H   23.9           G   0.15           U   8
Residuals in seconds of arc
070317 703  0.7+  0.3+    070317 703  1.2+  0.9-    070318 703  0.5-  0.2+
070317 703  0.4+  0.2+    070318 H55  0.9+  0.0     070318 703  0.8+  0.7+
070317 703  1.0-  0.8+    070318 H55  0.3+  0.1+    070319 673  1.1+  0.1+
070317 703  0.8-  0.4+    070318 H55  0.2+  0.2-    070319 673  0.9-  0.1-
070317 703  0.1+  1.0-    070318 703  1.0-  0.1-    070319 673  0.1+  0.1-
070317 703  0.6-  0.3-    070318 703  0.8-  0.2-    070319 673  0.2-  0.1-

Ephemeris:
2007 FJ1                 a,e,i = 1.83, 0.41, 3                   q = 1.0777
Date    TT    R. A. (2000) Decl.     Delta      r     Elong.  Phase     V
2007 03 11    10 55.37   +31 33.7    0.103    1.085   151.7    25.8    20.3
2007 03 21    12 02.33   +32 44.4    0.0957   1.078   147.3    30.0    20.3
2007 03 31    13 10.63   +29 35.3    0.0985   1.081   145.5    31.5    20.4
2007 04 10    14 02.75   +23 28.3    0.110    1.095   146.5    30.3    20.6
2007 04 20    14 35.58   +16 40.3    0.130    1.119   149.8    26.8    20.9
2007 04 30    14 54.76   +10 20.2    0.157    1.150   154.2    22.4    21.3
2007 05 10    15 06.00   +04 49.3    0.192    1.190   157.7    18.8    21.7

Timothy B. Spahr             (C) Copyright 2007 MPC           M.P.E.C. 2007-F39

Read MPEC 2007-F38 Read MPEC 2007-F40


Our Web policy. Index to the CBAT/MPC/ICQ pages.


Valid HTML 4.01!